Retour au catalogue

STARLINK-34636

ActifCommunicationsVLEO
NORAD 64915·PAYLOAD·🇺🇸 United States

Lancé Jul 26, 2025 depuis Cape Canaveral Space Force Station

Loading…

Prochains Passages (prochaines 24 heures)

TLE

FraisSource: CelesTrak SupGP

Époque: Sep 15, 2026, 02:59 UTC

1 64915C 25157M   26258.12479167 -.00102050  00000+0 -30149-2 0  2581
2 64915  53.1576 182.6112 0001379  84.9241 200.5943 15.34442760    13

Suivez STARLINK-34636 en temps réel avec AllMySat

Download on the App Store